Date String (YYYY-MM-DD hh:mm:ss) UTC,Instrument flags,absolute air pressure of the measurement (hPa),sample flow rate (lpm),inlet stack bypass flow (lpm),air temperature of the measurement (°C),ambient temperature measured by the external sensor (°C),aerosol sample conditioner tube jacket temperature (°C),OPC LED temperature (°C),internal box temperature (°C),relative humidity of the measurement (%),span deviation,mass concentration of particles derived from Lorenz-Mie calculation of OPC scattering (μg/m³),mass concentration of particles derived from Lorenz-Mie calculation of OPC scattering (μg/m³),mass concentration of particles derived from Lorenz-Mie calculation of OPC scattering (μg/m³)
DateTimeUTC,F1_M11,P_M11,Q1_M11,Q2_M11,T1_M11,T2_M11,T3_M11,T4_M11,T5_M11,U1_M11,ZSPAN_M11,X0_M11,X2_M11,X1_M11
2023-08-12 16:00:00,SystemResetWarning,0833.2,5.00,000.00,029.1,026.6,000.0,037.7,030.7,25.0,0000.0,0008.16,0004.02,0003.45
2023-08-12 16:01:00,SystemResetWarning,0833.2,5.01,000.00,029.1,026.9,000.0,037.7,030.8,25.2,0000.0,0008.47,0004.05,0003.46
2023-08-12 16:02:00,SystemResetWarning,0833.2,5.00,000.00,029.2,027.2,000.0,037.7,030.8,25.1,0000.0,0008.57,0004.05,0003.46
2023-08-12 16:03:00,SystemResetWarning,0833.2,5.00,000.00,029.2,027.5,000.0,037.7,030.9,24.8,0000.0,0009.01,0004.09,0003.46
2023-08-12 16:04:00,SystemResetWarning,0833.2,5.01,000.00,029.2,027.7,000.0,037.7,030.9,24.9,0000.0,0009.13,0004.07,0003.45
2023-08-12 16:05:00,SystemResetWarning,0833.3,5.00,000.00,029.3,027.9,000.0,037.7,031.0,25.0,0000.0,0009.05,0004.07,0003.45
2023-08-12 16:06:00,SystemResetWarning,0833.3,5.00,000.00,029.3,028.0,000.0,037.8,031.1,24.4,0000.0,0008.73,0004.05,0003.44
2023-08-12 16:07:00,SystemResetWarning,0833.3,5.00,000.00,029.4,028.1,000.0,037.8,031.1,24.2,0000.0,0008.48,0004.03,0003.43
2023-08-12 16:08:00,SystemResetWarning,0833.3,4.99,000.00,029.4,028.3,000.0,037.8,031.2,24.1,0000.0,0008.32,0003.97,0003.41
2023-08-12 16:09:00,SystemResetWarning,0833.3,5.00,000.00,029.4,028.3,000.0,037.8,031.2,23.9,0000.0,0008.40,0003.96,0003.41
2023-08-12 16:10:00,SystemResetWarning,0833.3,4.99,000.00,029.4,027.0,000.0,037.7,031.0,23.7,0000.0,0008.41,0003.96,0003.41
2023-08-12 16:11:00,SystemResetWarning,0833.3,5.01,000.00,029.4,025.3,000.0,037.6,030.6,23.7,0000.0,0008.52,0003.94,0003.40
2023-08-12 16:12:00,SystemResetWarning,0833.2,5.00,000.00,029.3,025.0,000.0,037.5,030.5,24.1,0000.0,0008.26,0003.89,0003.38
2023-08-12 16:13:00,SystemResetWarning,0833.3,5.02,000.00,029.2,025.3,000.0,037.5,030.4,25.3,0000.0,0008.14,0003.86,0003.37
2023-08-12 16:14:00,SystemResetWarning,0833.3,5.00,000.00,029.1,025.7,000.0,037.6,030.5,24.9,0000.0,0007.77,0003.81,0003.37
2023-08-12 16:15:00,SystemResetWarning,0833.2,5.00,000.00,029.1,026.1,000.0,037.6,030.6,24.6,0000.0,0008.38,0003.81,0003.37
2023-08-12 16:16:00,SystemResetWarning,0833.3,5.01,000.00,029.1,026.5,000.0,037.6,030.7,24.7,0000.0,0008.73,0003.82,0003.37
2023-08-12 16:17:00,SystemResetWarning,0833.3,5.00,000.00,029.1,026.9,000.0,037.7,030.7,24.1,0000.0,0008.66,0003.82,0003.38
2023-08-12 16:18:00,SystemResetWarning,0833.3,5.00,000.00,029.1,027.2,000.0,037.7,030.8,24.1,0000.0,0008.69,0003.81,0003.38
2023-08-12 16:19:00,SystemResetWarning,0833.2,5.00,000.00,029.2,027.5,000.0,037.7,030.9,23.9,0000.0,0008.84,0003.84,0003.39
2023-08-12 16:20:00,SystemResetWarning,0833.2,5.00,000.00,029.2,027.7,000.0,037.7,031.0,24.2,0000.0,0008.78,0003.86,0003.39
2023-08-12 16:21:00,SystemResetWarning,0833.3,5.00,000.00,029.3,027.9,000.0,037.7,031.0,24.3,0000.0,0008.81,0003.88,0003.39
2023-08-12 16:22:00,SystemResetWarning,0833.3,5.00,000.00,029.3,028.0,000.0,037.7,031.1,23.9,0000.0,0008.84,0003.90,0003.39
2023-08-12 16:23:00,SystemResetWarning,0833.3,5.00,000.00,029.3,028.1,000.0,037.8,031.1,23.6,0000.0,0008.88,0003.94,0003.39
2023-08-12 16:24:00,SystemResetWarning,0833.3,4.99,000.00,029.4,028.3,000.0,037.8,031.2,23.3,0000.0,0009.00,0003.96,0003.40
2023-08-12 16:25:00,SystemResetWarning,0833.3,4.99,000.00,029.4,027.8,000.0,037.8,031.1,23.5,0000.0,0009.61,0004.03,0003.40
2023-08-12 16:26:00,SystemResetWarning,0833.3,5.01,000.00,029.4,026.0,000.0,037.6,030.7,23.9,0000.0,0009.57,0004.04,0003.40
2023-08-12 16:27:00,SystemResetWarning,0833.2,5.01,000.00,029.3,025.0,000.0,037.5,030.5,24.6,0000.0,0009.16,0004.04,0003.42
2023-08-12 16:28:00,SystemResetWarning,0833.2,5.01,000.00,029.2,025.1,000.0,037.5,030.4,24.8,0000.0,0009.04,0004.02,0003.41
2023-08-12 16:29:00,SystemResetWarning,0833.2,4.99,000.00,029.1,025.5,000.0,037.5,030.4,25.1,0000.0,0009.16,0004.09,0003.42
2023-08-12 16:30:00,SystemResetWarning,0833.2,5.00,000.00,029.1,025.9,000.0,037.6,030.5,25.9,0000.0,0009.27,0004.11,0003.42
2023-08-12 16:31:00,SystemResetWarning,0833.3,5.00,000.00,029.1,026.3,000.0,037.6,030.6,26.5,0000.0,0009.36,0004.12,0003.42
2023-08-12 16:32:00,SystemResetWarning,0833.3,5.00,000.00,029.1,026.7,000.0,037.6,030.7,24.7,0000.0,0009.54,0004.12,0003.43
2023-08-12 16:33:00,SystemResetWarning,0833.4,5.00,000.00,029.1,027.1,000.0,037.6,030.8,24.6,0000.0,0009.72,0004.12,0003.43
2023-08-12 16:34:00,SystemResetWarning,0833.2,5.00,000.00,029.1,027.3,000.0,037.6,030.8,24.7,0000.0,0009.71,0004.15,0003.45
2023-08-12 16:35:00,SystemResetWarning,0833.2,5.00,000.00,029.2,027.6,000.0,037.7,030.9,24.6,0000.0,0009.67,0004.16,0003.46
2023-08-12 16:36:00,SystemResetWarning,0833.3,5.00,000.00,029.2,027.8,000.0,037.7,031.0,24.5,0000.0,0009.38,0004.14,0003.47
2023-08-12 16:37:00,SystemResetWarning,0833.2,5.00,000.00,029.3,027.9,000.0,037.7,031.0,24.6,0000.0,0008.66,0004.11,0003.47
2023-08-12 16:38:00,SystemResetWarning,0833.3,5.00,000.00,029.3,028.1,000.0,037.7,031.1,24.9,0000.0,0008.21,0004.10,0003.47
2023-08-12 16:39:00,SystemResetWarning,0833.3,5.01,000.00,029.3,028.1,000.0,037.7,031.1,25.2,0000.0,0008.54,0004.12,0003.48
2023-08-12 16:40:00,SystemResetWarning,0833.2,4.98,000.00,029.3,026.7,000.0,037.6,030.8,24.4,0000.0,0008.79,0004.07,0003.48
2023-08-12 16:41:00,SystemResetWarning,0833.2,5.01,000.00,029.3,025.2,000.0,037.5,030.6,24.9,0000.0,0009.07,0004.06,0003.49
2023-08-12 16:42:00,SystemResetWarning,0833.2,5.01,000.00,029.2,025.1,000.0,037.4,030.4,25.7,0000.0,0009.21,0004.08,0003.49
2023-08-12 16:43:00,SystemResetWarning,0833.2,5.00,000.00,029.1,025.4,000.0,037.5,030.4,26.3,0000.0,0009.54,0004.08,0003.50
2023-08-12 16:44:00,SystemResetWarning,0833.2,5.00,000.00,029.0,025.8,000.0,037.5,030.4,26.3,0000.0,0009.03,0004.05,0003.50
2023-08-12 16:45:00,SystemResetWarning,0833.2,5.00,000.00,029.0,026.2,000.0,037.5,030.5,26.2,0000.0,0008.86,0004.02,0003.49
2023-08-12 16:46:00,SystemResetWarning,0833.2,4.99,000.00,029.0,026.6,000.0,037.5,030.7,27.7,0000.0,0008.81,0004.01,0003.49
2023-08-12 16:47:00,SystemResetWarning,0833.2,5.00,000.00,029.1,027.0,000.0,037.6,030.7,28.4,0000.0,0008.81,0004.03,0003.48
2023-08-12 16:48:00,SystemResetWarning,0833.2,5.00,000.00,029.1,027.2,000.0,037.6,030.8,28.5,0000.0,0008.88,0004.05,0003.48
2023-08-12 16:49:00,SystemResetWarning,0833.2,5.00,000.00,029.1,027.5,000.0,037.6,030.9,29.2,0000.0,0009.07,0004.09,0003.48
2023-08-12 16:50:00,SystemResetWarning,0833.2,5.00,000.00,029.2,027.7,000.0,037.6,030.9,28.4,0000.0,0009.00,0004.13,0003.48
2023-08-12 16:51:00,SystemResetWarning,0833.2,5.01,000.00,029.2,027.9,000.0,037.7,031.0,27.8,0000.0,0009.45,0004.16,0003.47
2023-08-12 16:52:00,SystemResetWarning,0833.2,5.00,000.00,029.3,028.0,000.0,037.7,031.0,28.1,0000.0,0009.18,0004.19,0003.48
2023-08-12 16:53:00,SystemResetWarning,0833.2,5.00,000.00,029.3,028.2,000.0,037.7,031.1,26.9,0000.0,0008.95,0004.17,0003.48
2023-08-12 16:54:00,SystemResetWarning,0833.2,4.99,000.00,029.3,027.4,000.0,037.6,031.0,27.3,0000.0,0008.96,0004.21,0003.50
2023-08-12 16:55:00,SystemResetWarning,0833.2,5.00,000.00,029.3,025.6,000.0,037.5,030.6,26.5,0000.0,0009.05,0004.26,0003.50
2023-08-12 16:56:00,SystemResetWarning,0833.2,5.00,000.00,029.2,024.9,000.0,037.4,030.4,26.9,0000.0,0009.27,0004.31,0003.51
2023-08-12 16:57:00,SystemResetWarning,0833.2,5.01,000.00,029.1,025.2,000.0,037.4,030.3,29.0,0000.0,0009.23,0004.29,0003.51
2023-08-12 16:58:00,SystemResetWarning,0833.2,5.01,000.00,029.0,025.5,000.0,037.5,030.3,30.3,0000.0,0009.78,0004.29,0003.52
2023-08-12 16:59:00,SystemResetWarning,0833.1,4.99,000.00,029.0,026.0,000.0,037.5,030.5,30.6,0000.0,0010.57,0004.26,0003.52
